Observer details:
323 Perth Observatory, Bickley.  Observer A. Pearce.  0.35-m f/6 R-COP
    reflector + CCD, 0.35-m f/6 reflector + CCD.
474 Mount John Observatory, Lake Tekapo.  Observers A. C. Gilmore, P. M.
    Kilmartin.  Measurer P. M. Kilmartin.  0.6-m f/6.3 Reflector + CCD.
807 Cerro Tololo Observatory, La Serena.  Observers T. Linder, R. Holmes.
    0.61-m f/6.8 Ritchey-Chretien + CCD.
I47 Pierre Auger Observatory, Malargue.  Observer M. Masek.  0.3-m f/6.8
    reflector + CCD.
K95 MASTER-SAAO Observatory, Sutherland.  Observers Y. Kechin, V. Lipunov, E.
    Gorbovskoy, D. Buckley, P. Balanutsa, V. Kornilov, A. Kuznetsov, N.
    Tiurina, O. Gress, D. Zimnukhov.  0.4-m f/2.5 reflector   CCD.
L09 Sutherland-LCO Aqawan A #1.  Observer A. Hale.  0.35-m f/3 Cassegrain +
    CCD.
M21 Schiaparelli Southern Observatory, Hakos.  Observers A. Aletti, F.
    Bellini, L. Buzzi, G. Galli.  Measurers L. Buzzi, A. Aletti.  0.36-m f/8.4
    reflector + CCD.
M49 IAS Remote Observatory, Hakos.  Observers D. Husar, M. Junius.  Measurer
    D. Husar.  0.25-m f/4.5 reflector + CMO.
Q62 iTelescope Observatory, Siding Spring.  Observers F. D. Romanov, M.
    Urbanik.  0.43-m f/6.8 reflector + CCD, 0.51-m f/6.8 reflector + CCD.
R56 Scott Street Observatory, Lake Tekapo.  Observer A. Vilquin Barrajon.
    0.36-m f/2.2 reflector + CCD.
W68 ATLAS Chile, Rio Hurtado.  Observers L. Denneau, R. Siverd, J. Tonry, H.
    Weiland.  Measurers L. Denneau, N. Erasmus, A. Fitzsimmons, J. Robinson,
    R. Siverd, J. Tonry, H. Weiland.  0.5-m Reflector + CCD.
W79 Cerro Tololo-LCO Aqawan B #1.  Observer A. Hale.  0.35-m f/3 Cassegrain +
    CCD.
X07 iTelescope Deep Sky Chile, Rio Hurtado.  Observers H. Sato, K. Yoshimoto,
    M. Mattiazzo.  0.51-m f/6.8 astrograph + CCD, 0.36-m f/7.2 corrected Dall-
    Kirkham + CMO, 0.36-m f/7.2 corrected Dall-Kirkham +CMOS + CCD, pe:  T72
    3411 mm f/6.8 PlaneWave L-500 + FLI ML16200 + CCD.

Orbital elements:
    C/2024 G3 (ATLAS)                                                           
Epoch 2025 Jan. 5.0 TT = JDT 2460680.5                                          
T 2025 Jan. 13.44359 TT                                 Rudenko                 
q   0.0935656            (2000.0)            P               Q                  
z  +0.0000120      Peri.  108.13072     -0.04066614     +0.81516642             
 +/-0.0000001      Node   220.35582     +0.14750825     +0.57683743             
e   0.9999989      Incl.  116.83545     +0.98822446     -0.05255750             
>From 87 observations 2024 Apr. 5-17, mean residual 0".5.                        
                                                                                
Ephemeris:
Date    TT    R. A. (2000) Decl.     Delta      r    Elong.  Phase   m1    m2
2024 03 19    18 15 06.1 -71 55 17   4.7776  4.8438    87.9    11.9  19.2
...
2024 04 03    18 16 35.3 -74 13 04   4.4447  4.6781    97.3    12.2  18.9
...
2024 04 11    18 11 57.0 -75 33 22   4.2719  4.5886   102.1    12.3  18.8
...
2024 04 17    18 04 47.5 -76 35 02   4.1461  4.5209   105.6    12.3  18.6
2024 04 18    18 03 13.4 -76 45 19   4.1255  4.5096   106.2    12.3  18.6
2024 04 19    18 01 32.1 -76 55 34   4.1050  4.4982   106.7    12.3  18.6
...
2024 04 25    17 48 35.9 -77 55 53   3.9847  4.4299   109.9    12.3  18.5
...
2024 05 03    17 22 20.2 -79 08 45   3.8322  4.3379   113.8    12.3  18.3
...
2024 05 18    16 00 48.7 -80 23 16   3.5760  4.1628   119.1    12.3  18.0

M. P. C. Staff               (C) Copyright 2024 MPC           M.P.E.C. 2024-H22





More information about the Iaude mailing list